EHI
0 0 0 0 0 0 0 0 0 0 0 0 0 0 0 0 0 0 0 0 0 0 0 0 0 0 0 0 0 0 0 0 0 0 0 0 0 0 0 0 0 0 0
0 0 0 0 0 0 0 0 0 0 0 0 0 0 0 0 0 0 0 0 0 0 0 0 0 0 0 0 0 0 0 0 0 0 0 0 0 0 0 0 0 0 0
0 0 0 0 0 0 0 0 0 0 0 0 0 0 0 0 0 0 0 0 0 0 0 0 0 0 0 0 0 0 0 0 0 0 0 0 0 0 0 0 0 0 0
0 0 0 0 0 0 0 0 0 0 0 0 0 0 0 0 0 0 0 0 0 0 0 0 0 0 0 0 0 0 0 0 0 0 0 0 0 0 0 0 0 0 0
0 0 0 0 0 0 0 0 0 0 0 0 0 0 0 0 0 0 0 0 0 0 0 0 0 0 0 0 0 0 0 0 0 0 0 0 0 0 0 0 0 0 0
0 0 0 0 0 0 0 0 0 0 0 0 0 0 0 0 0 0 0 0 0 0 0 0 0 0 0 0 0 0 0 0 0 0 0 0 0 0 0 0 0 0 0
0 0 0 0 0 0 0 0 0 0 0 0 0 0 0 0 0 0 0 0 0 0 0 0 0 0 0 0 0 0 0 0 0 0 0 0 0 0 0 0 0 0 0
0 0 0 0 0 0 0 0 0 0 0 0 0 0 0 0 0 0 0 0 0 0 0 0 0 0 0 0 0 0 0 0 0 0 0 0 0 0 0 0 0 0 0
0 0 0 0 0 0 0 0 0 0 0 0 0 0 0 0 0 0 0 0 0 0 0 0 0 0 0 0 0 0 0 0 0 0 0 0 0 0 0 0 0 0 0
0 0 0 0 0 0 0 0 0 0 0 0 0 0 0 0 0 0 0 0 0 0 0 0 0 0 0 0 0 0 0 0 0 0 0 0 0 0 0 0 0 0 0
0 0 0 0 0 0 0 0 0 0 0 0 0 0 0 0 0 0 0 0 0 0 0 0 0 0 0 0 0 0 0 0 0 0 0 0 0 0 0 0 0 0 0
0 0 0 0 0 0 0 0 0 0 0 0 0 0 0 0 0 0 0 0 0 0 0 0 0 0 0 0 0 0 0 0 0 0 0 0 0 0 0 0 0 0 0
0 0 0 0 0 0 0 0 0 0 0 0 0 0 0 0 0 0 0 0 0 0 0 0 0 0 0 0 0 0 0 0 0 0 0 0 0 0 0 0 0 0 0
0 0 0 0 0 0 0 0 0 0 0 0 0 0 0 0 0 0 0 0 0 0 0 0 0 0 0 0 0 0 0 0 0 0 0 0 0 0 0 0 0 0 0
0 0 0 0 0 0 0 0 0 0 0 0 0 0 0 0 0 0 0 0 0 0 0 0 0 0 0 0 0 0 0 0 0 0 0 0 0 0 0 0 0 0 0
0 0 0 0 0 0 0 0 0 0 0 0 0 0 0 0 0 0 0 0 0 0 0 0 0 0 0 0 0 0 0 0 0 0 0 0 0 0 0 0 0 0 0
0 0 0 0 0 0 0 0 0 0 0 0 0 0 0 0 0 0 0 0 0 0 0 0 0 0 0 0 0 0 0 0 0 0 0 0 0 0 0 0 0 0 0
0 0 0 0 0 0 0 0 0 0 0 0 0 0 0 0 0 0 0 0 0 0 0 0 0 0 0 0 0 0 0 0 0 0 0 0 0 0 0 0 0 0 0
0 0 0 0 0 0 0 0 0 0 0 0 0 0 0 0 0 0 0 0 0 0 0 0 0 0 0 0 0 0 0 0 0 0 0 0 0 0 0 0 0 0 0
0 0 0 0 0 0 0 0 0 0 0 0 0 0 0 0 0 0 0 0 0 0 0 0 0 0 0 0 0 0 0 0 0 0 0 0 0 0 0 0 0 0 0
0 0 0 0 0 0 0 0 0 0 0 0 0 0 0 0 0 0 0 0 0 0 0 0 0 0 0 0 0 0 0 0 0 0 0 0 0 0 0 0 0 0 0
0 0 0 0 0 0 0 0 0 0 0 0 0 0 0 0 0 0 0 0 0 0 0 0 0 0 0 0 0 0 0 0 0 0 0 0 0 0 0 0 0 0 0
0 0 0 0 0 0 0 0 0 0 0 0 0 0 0 0 0 0 0 0 0 0 0 0 0 0 0 0 0 0 0 0 0 0 0 0 0 0 0 0 0 0 0
0 0 0 0 0 0 0 0 0 0 0 0 0 0 0 0 0 0 0 0 0 0 0 0 0 0 0 0 0 0 0 0 0 0 0 0 0 0 0 0 0 0 0
0 0 0 0 0 0 0 0 0 0 0 0 0 0 0 0 0 0 0 0 0 0 0 0 0 0 0 0 0 0 0 0 0 0 0 0 0 0 0 0 0 0 0
0 0 0 0 0 0 0 0 0 0 0 0 0 0 0 0 0 0 0 0 0 0 0 0 0 0 0 0 0 0 0 0 0 0 0 0 0 0 0 0 0 0 0
Wind_Speed
2 2 3 4 5 5 5 4 3 2 1 1 1 2 3 3 3 3 4 5 5 5 6 5 5 5 6 7 7 6 6 6 3 2 3 3 4 5 5 5 6 8 9
4 3 4 5 6 5 5 5 4 3 2 1 1 1 2 2 3 3 3 4 4 5 5 6 5 6 6 7 7 6 4 4 4 4 3 3 4 5 6 5 7 8 6
8 5 5 5 5 5 4 4 4 4 3 2 1 1 1 2 2 2 2 3 4 4 5 6 6 6 6 6 7 7 8 6 5 5 5 4 6 4 3 5 7 7 7
7 6 6 5 4 3 3 4 4 4 4 3 2 2 1 1 2 2 3 4 4 4 4 5 5 6 5 6 7 7 7 7 6 5 5 5 4 4 3 3 4 5 7
8 8 6 6 5 4 4 4 5 5 5 5 4 3 2 1 2 2 3 4 4 4 4 4 4 4 4 5 6 6 7 6 7 6 4 6 4 4 4 5 3 2 3
7 7 5 6 5 4 4 4 5 5 5 5 5 4 3 3 3 3 4 3 3 3 5 5 4 4 4 5 5 6 6 6 7 6 5 5 4 5 6 8 5 4 2
8 7 6 6 5 4 4 4 4 4 5 5 5 4 3 3 3 3 3 3 3 3 6 6 5 4 4 4 4 4 5 5 6 6 6 6 6 4 4 6 5 4 2
7 7 7 6 5 5 4 4 4 4 4 4 4 4 4 3 3 3 3 3 3 3 5 6 5 5 5 5 4 3 3 3 4 5 5 4 4 4 5 4 4 3 2
7 7 6 6 5 4 4 4 4 4 4 4 4 5 5 5 4 4 4 3 4 4 6 6 6 6 6 6 5 3 3 3 3 3 3 2 2 1 2 2 3 4 4
7 7 6 5 5 4 4 4 4 4 4 4 4 4 5 5 5 5 6 6 6 6 6 7 7 7 7 7 5 4 5 4 4 3 3 3 2 2 2 1 1 2 3
8 7 6 5 5 4 4 4 4 4 4 4 4 5 5 5 5 6 6 6 6 6 7 7 7 8 8 8 7 7 7 6 6 6 6 6 5 4 3 3 2 2 0
7 7 6 5 5 5 4 4 3 4 3 4 5 5 5 5 6 6 6 6 6 6 7 7 8 8 9 9 9 8 8 8 8 7 7 7 5 6 5 4 4 3 2
7 6 6 6 5 5 4 4 3 3 4 4 5 5 5 5 6 6 6 6 6 7 7 8 9 9 9 9 9 8 9 9 9 8 8 7 6 6 5 5 4 3 3
8 7 6 6 5 5 5 4 4 4 4 4 5 5 5 5 5 5 6 6 6 7 8 8 8 8 8 9 8 8 9 9 9 8 8 7 6 5 5 5 5 4 4
7 8 7 6 6 5 5 4 4 4 4 5 5 4 4 5 5 6 6 6 7 8 7 7 8 7 7 8 8 8 8 8 8 8 8 8 10 9 6 4 4 4 4
9 8 8 8 7 7 6 5 4 4 4 5 4 4 4 5 5 5 6 6 7 7 7 7 7 8 8 13 13 9 7 7 7 7 7 7 9 11 12 11 9 6 4
9 10 9 8 8 7 7 6 5 5 5 5 4 4 4 5 5 5 5 6 6 6 6 6 7 6 8 13 13 13 7 6 6 5 5 5 6 7 5 8 10 9 9
9 9 8 8 7 6 6 6 6 5 5 5 5 4 5 5 5 5 5 4 4 4 4 5 5 5 7 11 11 11 6 5 5 4 4 4 5 4 4 4 5 5 5
7 7 7 7 7 8 7 7 6 6 5 5 5 5 5 5 5 4 4 3 3 3 3 2 3 4 5 9 10 8 3 4 4 4 3 3 3 7 7 4 4 4 4
6 7 7 6 8 7 8 8 7 6 6 5 5 5 5 5 5 4 3 2 2 2 2 2 1 2 3 6 8 7 2 3 3 3 4 6 5 7 7 2 1 3 3
6 7 8 7 7 8 8 8 7 7 6 6 5 5 5 5 4 4 3 3 2 2 2 1 1 1 2 4 6 5 2 1 1 2 2 4 8 8 8 5 1 4 3
5 7 7 6 6 7 8 8 7 6 6 6 6 5 5 4 4 4 3 2 3 3 2 1 0 1 2 3 4 5 4 2 0 1 2 4 9 9 8 5 6 7 4
6 6 6 6 6 7 8 9 7 7 7 6 6 5 5 4 4 4 4 2 2 2 2 2 1 1 1 3 4 5 6 6 1 2 6 8 9 7 5 7 7 4 1
7 7 7 7 7 7 7 7 7 8 8 7 6 5 5 4 3 3 3 3 3 3 3 2 2 2 2 2 2 2 2 4 4 3 5 7 7 5 5 4 4 2 2
7 7 8 9 9 8 8 7 8 9 8 7 6 6 5 5 4 3 3 4 4 5 4 3 3 3 3 4 5 3 2 2 3 3 1 2 2 3 3 2 3 2 2
7 7 8 8 8 8 8 8 9 10 9 7 6 5 5 4 4 3 2 4 5 5 6 6 5 4 5 6 6 7 8 8 9 4 1 2 2 3 3 3 3 3 3
Wind_Direction
168 111 90 92 87 68 65 60 61 28 46 109 193 221 239 247 248 243 241 236 233 228 223 231 230 221 223 226 221 218 220 226 202 209 255 265 242 235 229 216 212 215 214
136 105 82 71 73 70 61 56 49 42 46 79 190 212 242 253 250 261 264 255 250 244 235 234 235 229 230 234 227 218 220 221 184 186 207 269 285 254 231 216 217 220 213
158 140 110 93 80 67 53 47 35 36 33 24 44 25 24 353 339 307 287 276 267 260 250 244 242 239 230 233 231 220 219 227 213 194 185 204 233 255 264 233 226 217 212
151 142 130 114 101 83 58 47 39 39 29 31 50 68 96 263 274 288 294 303 298 284 272 261 253 249 243 241 240 231 226 225 227 216 218 219 198 207 266 270 245 230 223
154 147 141 129 111 87 64 48 47 41 31 36 44 56 41 307 305 320 325 324 323 319 309 286 271 264 257 254 250 245 235 228 230 219 210 227 229 219 230 261 262 261 246
148 139 129 117 101 79 63 53 53 40 30 35 39 48 39 12 4 355 346 337 334 340 346 331 307 286 276 269 262 254 247 242 239 235 216 207 209 213 219 240 243 241 251
148 143 135 124 111 90 71 60 62 44 29 35 37 34 31 31 23 356 350 350 351 350 347 349 342 328 311 297 286 273 264 254 249 244 237 229 231 222 221 237 244 236 237
154 151 146 136 124 108 88 75 72 54 36 38 37 32 28 30 25 17 15 12 1 354 352 356 357 354 346 335 321 300 288 280 265 259 253 245 242 230 222 222 226 242 245
158 152 144 138 132 120 105 97 87 64 41 37 46 40 32 34 30 24 24 21 10 6 7 6 7 4 2 358 352 351 343 335 323 308 291 272 281 273 246 219 206 216 235
155 151 147 144 137 126 111 95 89 77 55 47 47 55 38 36 34 35 32 28 19 16 15 16 16 15 13 11 15 14 10 25 20 15 24 26 14 20 8 342 267 218 222
164 160 155 148 136 124 113 104 91 79 65 59 58 55 43 39 41 41 34 29 25 23 26 24 25 25 21 19 27 31 28 37 36 34 40 39 33 37 28 28 29 21 73
164 160 156 147 140 132 122 112 100 88 79 74 67 59 50 47 46 42 35 34 33 30 31 32 35 33 30 28 32 35 37 41 43 40 45 41 42 45 36 36 36 29 28
161 159 158 157 153 145 135 123 110 101 92 84 75 65 56 54 51 46 42 42 42 40 40 42 43 39 36 37 37 41 46 48 47 46 49 45 48 48 41 41 38 29 29
172 171 170 167 160 151 143 133 120 112 103 92 84 74 63 60 58 53 49 50 49 49 47 47 47 47 46 44 43 47 51 52 49 46 45 45 51 54 46 43 37 39 42
185 183 177 171 162 152 144 137 128 119 113 104 94 85 77 71 66 59 56 55 54 54 47 46 46 46 51 52 51 48 53 52 50 44 39 42 51 59 63 62 47 42 44
197 188 178 172 169 163 155 145 140 133 124 115 109 102 93 83 76 70 66 64 59 53 50 48 46 47 54 61 64 65 52 50 47 42 33 34 39 42 44 52 54 52 53
196 186 181 176 171 167 157 154 150 136 128 124 121 114 107 98 88 86 79 71 65 58 53 48 46 45 56 64 67 69 63 53 46 42 35 32 29 38 34 36 35 30 35
187 181 171 164 158 155 150 146 142 140 138 137 133 126 118 112 104 97 89 79 73 69 62 51 43 37 46 61 66 68 56 48 39 35 38 34 5 8 48 42 27 15 7
174 167 160 154 152 154 152 145 144 145 147 149 146 141 137 132 126 118 108 99 97 86 74 63 51 39 25 55 65 68 48 38 21 10 14 20 358 2 29 45 22 5 348
139 142 142 142 152 158 152 150 155 158 162 160 153 147 147 147 146 141 133 127 122 118 108 83 50 39 13 45 60 70 60 37 12 2 358 357 352 351 1 41 15 333 310
136 141 146 153 163 159 156 160 164 172 165 154 149 149 150 152 151 144 144 145 137 125 122 111 39 10 13 23 33 50 98 57 11 359 340 324 333 336 334 339 294 286 304
145 150 153 160 163 162 162 169 178 169 156 154 156 158 159 160 152 147 150 150 147 142 150 145 281 330 340 349 354 10 16 43 105 316 293 295 318 328 333 333 306 315 357
166 163 162 166 173 175 173 179 179 163 159 160 165 166 164 162 157 160 164 160 160 165 182 188 221 269 300 327 353 2 358 358 353 291 314 323 329 336 336 322 326 351 5
179 173 172 181 188 187 185 182 170 167 166 171 174 171 169 168 167 171 172 169 178 181 190 203 220 244 264 272 279 292 309 322 320 308 317 333 340 346 335 333 344 340 292
186 184 190 196 196 189 189 180 172 170 174 177 178 177 177 173 175 182 193 187 201 192 193 204 206 213 244 256 273 283 257 260 265 288 284 330 331 334 327 320 314 311 317
189 193 199 200 196 190 193 185 179 177 177 180 183 181 177 176 175 175 196 223 211 220 216 208 209 231 251 273 291 303 305 309 312 325 317 302 301 297 298 302 304 300 296